Regional Weather Roundup
Issued by NWS

Home | Current Version | Previous Version | Text Only | Print | Product List | Glossary Off
Versions: 1 2 3 4 5 6 7 8 9 10 11 12 13 14 15 16 17 18 19 20 21 22 23 24 25 26 27 28 29 30 31 32 33 34 35 36 37 38 39 40 41 42 43 44 45 46 47 48 49 50

000
ASUS43 KMKX 221500
RWRWI

WISCONSIN REGIONAL WEATHER ROUNDUP
NATIONAL WEATHER SERVICE MILWAUKEE/SULLIVAN WI
1000 AM CDT THU JUN 22 2017

NOTE: "FAIR" INDICATES FEW OR NO CLOUDS BELOW 12,000 FEET WITH NO
SIGNIFICANT WEATHER AND/OR OBSTRUCTIONS TO VISIBILITY.

WIZ001-002-006>008-014>016-023>028-221600-
NORTHWEST WISCONSIN

CITY           SKY/WX    TMP DP  RH WIND       PRES   REMARKS
SUPERIOR ARPT  NOT AVBL
ASHLAND        CLOUDY    68  61  78 CALM      29.68F
HAYWARD        CLOUDY    66  61  84 CALM      29.69F
SIREN          LGT RAIN  66  63  91 N9        29.71R
CUMBERLAND     CLOUDY    64  61  88 E3        29.72F
RICE LAKE      CLOUDY    66  63  88 CALM      29.74S
CHETEK           N/A     68  65  90 CALM      29.74R
LADYSMITH      CLOUDY    68  63  86 CALM      29.72F
EAU CLAIRE     PTSUNNY   69  68  96 SW5       29.73R
MENOMONIE      CLOUDY    70  66  87 CALM      29.74R
NEW RICHMOND   CLOUDY    68  63  85 E5        29.72R
OSCEOLA        CLOUDY    68  68 100 SE6       29.73S
$$

WIZ003>005-009-010-017-018-221600-
NORTH CENTRAL WISCONSIN

CITY           SKY/WX    TMP DP  RH WIND       PRES   REMARKS
MANITOWISH WTR CLOUDY    66  64  95 W8        29.72S
ARBOR VITAE    CLOUDY    67  63  87 SW7       29.72S
WOODRUFF       CLOUDY    67  63  87 SW7       29.72S
RHINELANDER    CLOUDY    71  65  81 SW8       29.73F
EAGLE RIVER    CLOUDY    67  61  80 W9        29.72S
LAND O LAKES   CLOUDY    67  61  80 W6        29.73S
PHILLIPS       DRIZZLE   66  65  95 NW5       29.72F
TOMAHAWK       NOT AVBL
MEDFORD        CLOUDY    69  65  85 W10G16    29.72F
MERRILL        CLOUDY    71  67  88 CALM      29.73F
$$

WIZ029-030-035-036-043>047-221600-
CENTRAL WISCONSIN

CITY           SKY/WX    TMP DP  RH WIND       PRES   REMARKS
WAUSAU         LGT RAIN  68  66  93 SW6       29.72S
MOSINEE        TSTM      66  66 100 SW20G26   29.76R
MARSHFIELD     LGT RAIN  67  63  87 SW7       29.75R
STEVENS POINT  CLOUDY    69  68  96 SW3       29.75R
WAUPACA        CLOUDY    76  70  81 SW10      29.73S
WAUTOMA        CLOUDY    74  69  85 SW7       29.75R
WISC RAPIDS    CLOUDY    72  67  84 SW7       29.74S
CAMP DOUGLAS   NOT AVBL
$$

WIZ011>013-019>022-031-037>040-048>050-221600-
NORTHEAST WISCONSIN

CITY           SKY/WX    TMP DP  RH WIND       PRES   REMARKS
ANTIGO         CLOUDY    70  66  86 W10       29.74S
SHAWANO        CLOUDY    72  66  83 W5        29.72S
OCONTO         CLOUDY    74  67  79 W7        29.71S
STURGEON BAY     N/A     73  67  81 SW13        N/A
GREEN BAY      CLOUDY    74  70  87 SW6       29.73S
MANITOWOC      NOT AVBL
APPLETON       PTSUNNY   73  70  88 SW10      29.73S
CLINTONVILLE   CLOUDY    72  64  78 W10       29.72F
OSHKOSH        CLOUDY    74  68  81 S12       29.74S
$$

WIZ032>034-041-042-053>061-221600-
SOUTHWEST WISCONSIN

CITY           SKY/WX    TMP DP  RH WIND       PRES   REMARKS
LA CROSSE      CLOUDY    75  66  73 S12       29.71F
SPARTA         CLOUDY    71  67  89 CALM      29.74S
VIROQUA        CLOUDY    72  62  72 SW16G25   29.77R
BOSCOBEL       TSTM      68  64  87 S5        29.80R
PRAIRIE DU CHI LGT RAIN  64  63  95 NW3       29.79R
PLATTEVILLE    CLOUDY    72  67  84 SW6       29.82R
$$

WIZ056-057-062-063-064-067-068-221600-
SOUTH CENTRAL WISCONSIN

CITY           SKY/WX    TMP DP  RH WIND       PRES   REMARKS
REEDSBURG      CLOUDY    69  69 100 CALM      29.76R
BARABOO/DELLS  CLOUDY    70  67  91 SW6       29.76S
LONE ROCK      LGT RAIN  68  66  93 S8        29.76R FOG
MINERAL POINT  LGT RAIN  68  68 100 SW5       29.80R
MADISON        CLOUDY    71  68  90 CALM      29.78R
MIDDLETON      CLOUDY    71  70  98 CALM      29.79R
WATERTOWN      CLOUDY    73  70  91 SW3       29.78R
MONROE         CLOUDY    73  64  73 SW15      29.79F
JANESVILLE     PTSUNNY   79  66  65 SW12G17   29.78S HX  81
$$

WIZ051-052-058>065-066-070>072-221600-
SOUTHEAST WISCONSIN

CITY           SKY/WX    TMP DP  RH WIND       PRES   REMARKS
MILWAUKEE      CLOUDY    78  67  68 SW12      29.76F HX  80
WAUKESHA       PTSUNNY   73  64  73 SW9       29.79S
MILWAUKEE/TIMM MOSUNNY   75  64  69 CALM      29.78F
RACINE         CLOUDY    78  66  66 SW13G25   29.78F HX  80
KENOSHA        PTSUNNY   78  67  68 S18G28    29.78F HX  80
FOND DU LAC    PTSUNNY   75  66  73 S12       29.75S
SHEBOYGAN      CLOUDY    74  70  87 SW8       29.74F
WEST BEND      CLOUDY    70  68  94 CALM      29.77F
JUNEAU         CLOUDY    72  68  87 S6        29.77S
$$

LSZ147-162-221600-
LAKE SUPERIOR

STATION/POSITION TIME  TEMP    WIND        PRES    WAVE
                       AIR SEA DIR/SP/G            HT/PER
                 (UTC) (F)     (DEG/KT/KT) (MB)    (FT/S)
W MID LAKE BUOY  1350   43 39  230/  8/  8 1004.7F   0
DEVILS ISLAND    1400   54     240/ 13/ 15 1004.9F
SAXON HARBOR     1430   68     240/  2/  5 1005.4F
$$

LMZ867-665-643>646-221600-
LAKE MICHIGAN

STATION/POSITION TIME  TEMP    WIND        PRES    WAVE
                       AIR SEA DIR/SP/G            HT/PER
                 (UTC) (F)     (DEG/KT/KT) (MB)    (FT/S)
CHAMBERS ISLAND  1440   69     190/  6/ 12 1005.8F
N MID LAKE BUOY  1350   58 54  180/ 12/ 14 1006.9F   2/ 5
NORTHPORT PIER   1440   70     250/  4/ 16 1006.1S
KEWAUNEE LAKESHO 1430   55     170/ 12/ 13 1006.5F
SHEBOYGAN LAKESH 1400   63     160/  3/  4 1007.3R
PORT WASHINGTON  1430   64     200/  6/  9 1008.8S
MILWAUKEE LAKESH 1430   62     210/  3/  3   N/A
S MID LAKE BUOY  1350   65 61  170/ 14/ 16 1010.0F   2/ 4
KENOSHA   LAKESH 1400   77     230/ 13/ 19 1009.1
$$

TC  - TEMPERATURE IN CELSIUS
VSB - VISIBILITY IN STATUTE MILES
WCI - WIND CHILL INDEX
HX  - HEAT INDEX




USA.gov is the U.S. government's official web portal to all federal, state and local government web resources and services.